Tracking 35331 objects as of 15-Sep-2026
HD Live streaming from Space Station
objects crossing your sky now

EXOCUBE


EXOCUBE is no longer on orbit
EXOCUBE is classified as:


NORAD ID: 40380
Int'l Code: 2015-003E
Launch date: January 31, 2015
Source: United States (US)
Launch site: AIR FORCE WESTERN TEST RANGE (AFWTR)
Decay date: 2024-06-30

Uplink (MHz):
Downlink (MHz): 437.270
Beacon (MHz): 437.270
Mode: 9k6 FSK CW
Call sign: KK6HGC XO3
Status: Reentered


Uplink (MHz):
Downlink (MHz): 437.270
Beacon (MHz): 437.270
Mode: 9k6 FSK CW
Call sign: KK6HGC XO3
Status: Reentered

Your satellite tracking list
Your tracking list is empty




NASA's NSSDC Master Catalog

Two Line Element Set (TLE):
1 40380U 15003E   24182.35509181  .14513438  37056-5  19265-3 0  9994
2 40380  99.0710 214.6222 0010155 269.4194  90.5941 16.48902700521563
Source of the keplerian elements: AFSPC